Regional Weather Roundup
Issued by NWS

Home | Current Version | Previous Version | Text Only | Print | Product List | Glossary Off
Versions: 1 2 3 4 5 6 7 8 9 10 11 12 13 14 15 16 17 18 19 20 21 22 23 24 25 26 27 28 29 30 31 32 33 34 35 36 37 38 39 40 41 42 43 44 45 46 47 48 49 50

000
ASUS43 KLMK 191010
RWRKY
KENTUCKY REGIONAL WEATHER ROUNDUP
NATIONAL WEATHER SERVICE LOUISVILLE KY
600 AM EDT SAT AUG 19 2017

NOTE "FAIR" INDICATES FEW OR NO CLOUDS BELOW 12,000 FEET
WITH NO SIGNIFICANT WEATHER AND/OR OBSTRUCTIONS TO VISIBILITY.

KYZ001>023-026-027-061>063-070>075-191100-
WESTERN AND SOUTH CENTRAL KENTUCKY

CITY           SKY/WX    TMP DP  RH WIND       PRES   REMARKS
PADUCAH        CLOUDY    70  65  84 SW3       29.94R
HENDERSON      MOCLDY    68  67  96 CALM      29.94R
OWENSBORO      MOCLDY    70  66  87 CALM      29.95R
HOPKINSVILLE   MOCLDY    71  68  88 SW3       29.96R
BOWLING GREEN  CLOUDY    71  68  90 CALM      29.97R
GLASGOW        CLOUDY    67  67 100 CALM      29.98R
$$

KYZ024-025-028>034-038-045-046-053-191100-
NORTH CENTRAL KENTUCKY

CITY           SKY/WX    TMP DP  RH WIND       PRES   REMARKS
LOUISVILLE/SDF CLOUDY    74  67  78 CALM      29.95R
LOUISVILLE/LOU CLOUDY    71  68  90 CALM      29.96R
FORT KNOX      CLOUDY    68  65  90 CALM      29.95R
$$

KYZ035>037-039>044-047>052-055>060-089>105-191100-
NORTHEAST KENTUCKY

CITY           SKY/WX    TMP DP  RH WIND       PRES   REMARKS
LEXINGTON      CLOUDY    67  63  87 S5        29.99R
COVINGTON      CLOUDY    69  67  93 CALM      29.95R
FRANKFORT      CLOUDY    69  64  84 CALM      29.95R
$$

KYZ054-064>069-076>088-106>120-191100-
SOUTHEAST KENTUCKY

CITY           SKY/WX    TMP DP  RH WIND       PRES   REMARKS
JACKSON        CLEAR     65  63  93 CALM      30.01S
LONDON         CLEAR     64  62  93 CALM      30.02S
SOMERSET       FOG       63  63 100 CALM      30.01F VSB 1/2
MIDDLESBORO    FOG       63  63 100 CALM      30.05S VSB 1/2
MONTICELLO     MOSUNNY   62  62 100 W12       30.02S FOG
$$





USA.gov is the U.S. government's official web portal to all federal, state and local government web resources and services.